Akron, CO

10:25 PM MST on February 23, 2017 (GMT -0700)
Akron-Washington County

Weather History for KAKO - November, 2011

Change the Weather History Date:

Wednesday, November 2, 2011

  Actual Average Record
Temperature  
Mean Temperature 23 °F 44 °F  
Max Temperature 31 °F 57 °F 80 °F (2008)
Min Temperature 15 °F 31 °F -8 °F (1951)
Degree Days  
Heating Degree Days 42    
Month to date heating degree days 66  
Cooling Degree Days 0    
Month to date cooling degree days 0  
Moisture  
Dew Point 25 °F    
Average Humidity 82    
Maximum Humidity 100    
Minimum Humidity 63    
Precipitation  
Precipitation 0.08 in 0.02 in 1.52 in (1956)
Month to date precipitation 0.13 0.04  
Year to date precipitation 15.80  
Sea Level Pressure  
Sea Level Pressure 30.36 in    
Wind  
Wind Speed 20 mph (North)    
Max Wind Speed 28 mph    
Max Gust Speed 32 mph    
Visibility 4 miles    
Events Fog , Snow    
T = Trace of Precipitation, MM = Missing Value Source: NWS Daily Summary

Daily Weather History Graph

Daily Weather History Graph

Search for Another Location

Airport or City:

Trip Planner

Search our weather history database for the weather conditions in past years. The results will help you decide how hot, cold, wet, or windy it might be!

Date:

Astronomy

Nov. 02, 2011 Rise Set
Actual Time 7:23 AM MDT 5:49 PM MDT
Civil Twilight 6:54 AM MDT 6:17 PM MDT
Nautical Twilight 6:22 AM MDT 6:49 PM MDT
Astronomical Twilight 5:51 AM MDT 7:21 PM MDT
Moon 1:43 PM MDT (11/2) No Moon Set
Length of Visible Light 11h 22m
Length of Day
10h 26m
Waxing Crescent, 51% of the Moon is Illuminated
Nov 2
Waxing Crescent
Nov 10
Full
Nov 18
Last Quarter
Nov 24
New
Dec 2
First Quarter

Hourly Weather History & Observations

Time (MDT) Temp. Windchill Dew Point Humidity Pressure Visibility Wind Dir Wind Speed Gust Speed Precip Events Conditions
12:16 AM 30.2 °F 17.4 °F 28.4 °F 93% 30.13 in 1.8 mi NNE 20.7 mph 28.8 mph 0.01 in Snow Light Snow
12:24 AM 30.2 °F 16.8 °F 28.4 °F 93% 30.13 in 2.0 mi NNE 23.0 mph - 0.01 in Snow Light Snow
12:38 AM 30.2 °F 16.5 °F 28.4 °F 93% 30.13 in 4.0 mi NNE 24.2 mph 28.8 mph 0.01 in Snow Light Snow
12:53 AM 30.0 °F 16.9 °F 28.0 °F 92% 30.16 in 4.0 mi NNE 21.9 mph 34.5 mph 0.01 in Snow Light Snow
1:26 AM 28.4 °F 14.7 °F 28.4 °F 100% 30.14 in 2.5 mi NNE 21.9 mph 31.1 mph 0.01 in Snow Light Snow
1:43 AM 28.4 °F 14.4 °F 28.4 °F 100% 30.14 in 1.8 mi NNE 23.0 mph 29.9 mph 0.02 in Snow Light Snow
1:53 AM 28.9 °F 15.4 °F 28.0 °F 96% 30.16 in 2.0 mi NNE 21.9 mph 29.9 mph 0.02 in Snow Light Snow
2:02 AM 28.4 °F 14.4 °F 28.4 °F 100% 30.14 in 1.5 mi NNE 23.0 mph 28.8 mph 0.01 in Snow Light Snow
2:17 AM 28.4 °F 14.7 °F 28.4 °F 100% 30.14 in 2.5 mi NNE 21.9 mph - 0.01 in Snow Light Snow
2:53 AM 28.9 °F 15.8 °F 27.0 °F 92% 30.19 in 1.8 mi North 20.7 mph - 0.03 in   Overcast
3:53 AM 28.9 °F 16.9 °F 27.0 °F 92% 30.23 in 0.8 mi North 17.3 mph - 0.02 in   Mist
4:04 AM 28.4 °F 15.8 °F 26.6 °F 93% 30.21 in 0.8 mi North 18.4 mph - N/A   Mist
4:53 AM 28.9 °F 15.4 °F 27.0 °F 92% 30.24 in 1.0 mi North 21.9 mph - N/A   Overcast
5:10 AM 28.4 °F 13.8 °F 26.6 °F 93% 30.22 in 1.2 mi North 25.3 mph 31.1 mph N/A   Overcast
5:28 AM 28.4 °F 14.1 °F 26.6 °F 93% 30.24 in 1.8 mi North 24.2 mph - N/A   Overcast
5:53 AM 28.9 °F 15.4 °F 27.0 °F 92% 30.29 in 1.8 mi North 21.9 mph - N/A   Overcast
6:53 AM 28.9 °F 15.4 °F 27.0 °F 92% 30.34 in 1.5 mi North 21.9 mph - N/A   Overcast
7:28 AM 28.4 °F 15.8 °F 26.6 °F 93% 30.31 in 1.2 mi North 18.4 mph - N/A   Overcast
7:32 AM 28.4 °F 15.4 °F 26.6 °F 93% 30.31 in 0.8 mi North 19.6 mph - N/A   Overcast
7:42 AM 28.4 °F 15.1 °F 26.6 °F 93% 30.31 in 0.5 mi North 20.7 mph - 0.01 in Fog Light Freezing Fog
7:53 AM 28.9 °F 16.5 °F 27.0 °F 92% 30.40 in 0.5 mi North 18.4 mph - 0.01 in Fog Light Freezing Fog
8:13 AM 28.4 °F 15.4 °F 28.4 °F 100% 30.34 in 1.2 mi NNW 19.6 mph - 0.00 in Snow Light Snow
8:23 AM 28.4 °F 15.8 °F 28.4 °F 100% 30.34 in 1.5 mi NNW 18.4 mph - 0.00 in Snow Light Snow
8:42 AM 28.4 °F 17.0 °F 28.4 °F 100% 30.35 in 1.0 mi NNW 15.0 mph - 0.00 in Snow Light Snow
8:53 AM 28.9 °F 17.3 °F 28.0 °F 96% 30.44 in 1.0 mi NNW 16.1 mph - 0.00 in Snow Light Snow
9:14 AM 28.4 °F 16.6 °F 28.4 °F 100% 30.36 in 0.8 mi NNW 16.1 mph - 0.00 in Snow Light Snow
9:38 AM 28.4 °F 15.8 °F 28.4 °F 100% 30.37 in 1.0 mi NNW 18.4 mph - 0.00 in Snow Light Snow
9:53 AM 28.9 °F 16.1 °F 28.0 °F 96% 30.46 in 0.8 mi North 19.6 mph 26.5 mph 0.00 in Snow Light Snow
10:02 AM 28.4 °F 14.7 °F 26.6 °F 93% 30.38 in 1.2 mi North 21.9 mph 28.8 mph 0.00 in Snow Light Snow
10:04 AM 28.4 °F 15.4 °F 26.6 °F 93% 30.38 in 3.0 mi North 19.6 mph 28.8 mph 0.00 in Snow Light Snow
10:26 AM 28.4 °F 13.5 °F 24.8 °F 86% 30.39 in 3.0 mi North 26.5 mph 32.2 mph 0.00 in Snow Light Snow
10:28 AM 28.4 °F 14.4 °F 26.6 °F 93% 30.39 in 3.0 mi North 23.0 mph - 0.00 in Snow Light Snow
10:30 AM 28.4 °F 14.1 °F 26.6 °F 93% 30.39 in 2.5 mi North 24.2 mph - 0.00 in Snow Light Snow
10:44 AM 28.4 °F 15.1 °F 26.6 °F 93% 30.39 in 1.2 mi North 20.7 mph - 0.00 in Snow Light Snow
10:53 AM 28.0 °F 14.3 °F 25.0 °F 88% 30.49 in 1.5 mi North 21.9 mph 31.1 mph 0.00 in Snow Light Snow
11:11 AM 28.4 °F 14.4 °F 26.6 °F 93% 30.40 in 3.0 mi North 23.0 mph - 0.00 in Snow Light Snow
11:40 AM 28.4 °F 14.1 °F 24.8 °F 86% 30.41 in 10.0 mi North 24.2 mph 29.9 mph 0.00 in   Overcast
11:53 AM 28.0 °F 13.9 °F 23.0 °F 81% 30.51 in 10.0 mi North 23.0 mph 29.9 mph 0.00 in   Overcast
12:53 PM 30.0 °F 17.9 °F 23.0 °F 75% 30.51 in 10.0 mi North 18.4 mph - 0.00 in   Scattered Clouds
1:53 PM 30.9 °F 18.7 °F 21.0 °F 67% 30.52 in 10.0 mi NNW 19.6 mph - 0.00 in   Scattered Clouds
2:53 PM 30.0 °F 18.7 °F 19.9 °F 66% 30.52 in 10.0 mi NNW 16.1 mph - N/A   Clear
3:53 PM 30.0 °F 20.5 °F 21.9 °F 72% 30.51 in 10.0 mi NNW 11.5 mph - N/A   Clear
4:53 PM 28.0 °F 20.0 °F 21.0 °F 75% 30.52 in 10.0 mi NNW 8.1 mph - N/A   Clear
5:53 PM 23.0 °F 14.7 °F 19.0 °F 85% 30.54 in 10.0 mi WNW 6.9 mph - N/A   Clear
6:53 PM 19.0 °F 8.2 °F 16.0 °F 88% 30.56 in 10.0 mi WNW 9.2 mph - N/A   Clear
7:53 PM 17.1 °F - 15.1 °F 92% 30.56 in 10.0 mi North - - N/A   Clear
8:53 PM 15.1 °F 1.8 °F 12.9 °F 91% 30.56 in 10.0 mi West 11.5 mph - N/A   Clear
9:53 PM 17.1 °F 5.0 °F 14.0 °F 88% 30.55 in 10.0 mi West 10.4 mph - N/A   Clear
10:53 PM 18.0 °F 6.9 °F 15.1 °F 88% 30.55 in 10.0 mi West 9.2 mph - N/A   Clear
11:53 PM 19.0 °F 5.6 °F 15.1 °F 85% 30.53 in 10.0 mi WSW 13.8 mph - N/A   Clear